Temperature
22 22 22 22 21 21 21 21 20 20 19 19 19 19 19 19 19 19 18 18 18 18 18 18 18 18 17 17 17 17 17 17 17 17 17 18 18 18 18 17 17 17 17
22 22 22 22 22 21 21 21 20 20 20 20 19 19 19 19 19 19 18 18 18 18 18 18 18 18 18 17 17 17 17 17 17 17 17 17 18 18 18 18 18 17 17
23 22 22 22 22 22 21 21 21 20 20 20 19 19 19 19 19 19 19 18 18 18 18 18 17 17 17 17 17 17 17 17 17 17 17 17 17 17 18 18 18 18 17
23 23 23 22 22 22 22 21 21 20 20 20 19 19 19 19 19 19 19 18 18 18 18 18 17 17 17 17 17 17 17 17 17 17 17 17 17 17 17 17 17 17 17
23 23 23 23 23 22 22 21 21 21 20 20 20 19 19 19 19 19 19 18 18 18 18 18 17 17 17 17 17 17 17 17 17 17 17 17 17 17 16 17 17 17 17
23 24 24 23 23 22 22 22 21 21 20 20 20 19 19 19 19 19 19 19 18 18 18 18 18 17 18 18 17 17 17 17 17 17 17 17 17 17 16 16 17 17 17
24 24 23 23 23 22 22 22 21 21 20 20 20 20 20 19 19 19 19 19 18 18 18 18 18 18 18 18 17 17 17 17 17 17 17 17 17 16 16 16 16 16 16
24 24 24 24 23 23 22 22 22 21 21 20 20 20 20 19 19 19 19 19 18 18 18 18 18 18 18 18 17 17 17 17 17 17 17 17 17 16 16 16 16 15 16
24 24 24 24 24 23 23 22 22 21 21 20 20 20 20 19 19 19 19 18 18 18 18 18 18 18 17 17 17 17 17 17 17 17 17 16 16 16 16 16 16 15 15
24 24 24 24 23 23 23 22 22 21 21 20 20 20 20 19 19 19 18 18 18 18 18 18 18 18 17 17 17 17 17 17 17 16 16 16 16 16 16 16 15 15 15
24 24 24 23 23 23 22 22 22 21 21 20 20 20 19 19 19 19 19 18 18 18 18 17 17 17 17 17 17 17 17 17 16 16 16 16 16 16 16 16 15 15 15
24 24 23 23 22 22 22 22 21 21 21 20 20 20 19 19 19 19 18 18 18 18 18 17 17 17 17 17 17 16 16 16 16 16 16 16 16 16 16 15 15 15 15
23 23 23 23 22 22 22 22 21 21 21 20 20 20 19 19 19 18 18 18 18 17 17 17 17 17 17 17 16 16 16 16 16 16 16 15 15 15 15 15 15 14 14
23 23 22 22 22 22 22 21 21 21 20 20 20 19 19 19 19 18 18 18 17 17 17 17 17 16 16 16 16 16 16 16 15 15 15 15 15 15 15 15 14 14 14
22 22 22 22 22 22 21 21 21 20 20 20 19 19 19 18 18 18 18 17 17 17 16 16 16 16 16 16 16 16 15 15 15 15 15 15 15 14 14 14 14 14 14
22 22 22 22 22 21 21 21 20 20 19 19 19 19 18 18 18 17 17 17 16 16 16 16 15 15 15 15 15 15 15 15 15 14 14 14 14 14 14 13 13 13 13
22 22 22 22 21 21 21 20 20 19 19 19 19 18 18 18 17 17 16 16 16 16 15 15 15 15 15 15 15 15 15 14 14 14 14 14 13 13 13 13 13 13 12
22 22 22 22 21 21 20 20 19 19 19 18 18 18 17 17 17 16 16 15 15 15 15 15 15 14 14 14 14 14 14 14 13 13 13 13 13 13 13 13 12 12 12
22 22 22 21 21 20 20 19 19 18 18 18 18 17 17 17 16 16 15 15 15 15 15 14 14 14 14 14 14 14 14 13 13 13 12 12 12 12 12 12 12 11 11
22 22 21 21 20 20 19 19 18 18 18 17 17 16 16 16 16 15 15 15 14 14 14 14 14 13 13 13 13 13 13 13 12 12 12 12 11 11 11 11 11 11 10
22 21 21 20 20 19 19 18 18 18 17 17 16 16 15 15 15 15 15 14 14 14 14 13 13 13 13 13 13 13 12 12 12 12 11 11 11 11 11 10 10 10 10
21 21 20 20 19 19 18 18 18 17 17 16 16 15 15 15 15 14 14 14 14 14 13 13 13 13 12 12 12 12 12 12 12 11 11 11 10 10 10 10 10 10 10
20 20 20 19 18 18 18 17 17 16 16 16 15 15 15 15 14 14 14 14 13 13 13 13 13 12 12 12 12 11 11 11 11 11 10 10 10 10 10 9 9 9 9
19 19 19 18 18 17 17 17 16 16 16 15 15 15 15 14 14 14 13 13 13 13 13 12 12 12 12 11 11 11 11 11 11 10 10 10 10 9 9 9 9 9 8
19 18 18 18 17 17 16 16 16 16 15 15 15 15 14 14 14 13 13 13 13 12 12 12 12 12 11 11 11 11 10 10 10 10 10 9 9 9 9 8 8 8 8
18 18 18 17 17 17 16 16 15 15 15 15 15 14 14 14 13 13 13 12 12 12 11 11 11 11 11 11 10 10 10 10 10 9 9 9 9 8 8 8 8 8 8
Wind_Speed
10 9 10 10 9 8 9 9 8 7 6 4 3 3 3 3 3 5 8 8 8 8 7 5 4 4 3 4 3 2 2 1 1 0 2 3 3 3 4 4 4 6 8
8 10 10 10 11 11 10 9 9 9 8 6 4 3 3 2 3 3 5 7 8 7 7 5 4 4 3 3 3 3 2 1 1 2 0 2 3 2 2 2 3 4 5
12 11 12 12 12 12 12 11 10 9 8 7 4 3 2 1 1 2 2 5 7 7 7 6 5 4 4 4 4 4 4 3 2 2 2 2 3 3 2 2 2 2 3
11 10 12 12 13 13 11 10 10 8 8 7 7 6 5 5 5 3 3 4 6 7 8 7 6 5 4 4 5 4 3 3 3 2 2 3 2 2 2 2 1 2 3
12 12 13 13 12 11 11 10 9 9 8 8 8 7 6 5 3 2 3 4 4 5 7 7 6 5 4 5 4 3 4 3 4 3 2 2 2 3 3 4 2 2 2
12 12 10 9 9 9 9 9 9 8 8 8 8 8 8 6 4 4 4 4 3 3 5 6 5 5 4 4 4 4 4 4 4 4 3 3 3 3 3 4 4 3 2
12 11 11 11 11 10 10 9 9 8 8 8 9 9 8 7 7 6 5 5 4 4 5 5 5 5 5 5 4 3 4 4 4 5 4 4 4 3 3 3 3 3 2
10 12 12 12 12 12 11 10 10 9 9 9 9 7 7 5 5 5 5 5 5 5 4 5 5 5 5 5 4 3 3 3 4 5 4 4 4 4 4 3 3 2 2
10 11 11 11 11 12 12 11 11 9 8 8 7 6 6 6 6 5 4 3 3 3 3 4 4 4 3 3 3 3 3 2 3 3 3 3 3 3 3 3 3 3 3
5 7 8 9 9 10 9 9 9 9 8 7 7 6 6 6 5 4 4 3 3 2 2 3 3 2 3 3 3 2 2 2 2 2 2 2 2 2 2 3 3 3 3
5 6 6 7 8 8 8 8 7 7 6 7 6 5 4 4 4 4 4 3 2 2 2 3 3 2 1 2 2 2 2 2 1 1 1 1 1 1 1 1 1 2 2
4 6 7 7 7 7 7 7 7 6 6 6 5 5 4 3 3 3 2 2 2 2 2 2 2 2 1 2 2 2 2 2 1 0 0 1 0 1 0 1 1 1 2
5 5 7 7 7 6 6 6 6 5 4 5 5 4 3 3 3 3 2 2 2 2 2 2 2 1 1 2 2 2 2 2 1 1 1 0 1 1 1 2 2 2 2
5 6 6 5 5 6 6 6 5 5 5 5 4 4 3 3 3 3 3 3 3 2 2 2 2 1 1 2 2 3 3 3 3 2 2 1 2 2 2 2 2 3 3
5 6 5 5 5 5 5 6 5 5 5 5 4 4 3 4 4 4 4 4 3 3 3 3 2 2 1 2 3 4 4 4 4 4 4 4 5 5 4 3 3 4 3
5 5 5 5 5 5 6 6 6 6 6 6 4 3 4 5 4 4 4 4 4 4 4 4 3 3 2 4 6 5 5 4 4 4 4 4 5 6 8 9 8 6 5
6 6 6 5 5 6 6 6 7 7 6 6 5 4 5 5 5 5 5 5 4 4 4 4 4 4 4 6 6 8 6 5 4 4 4 4 5 7 7 10 11 10 9
6 6 5 5 6 6 7 7 7 7 7 6 5 5 6 6 5 6 6 5 4 5 5 5 5 4 5 7 8 9 7 6 6 5 5 6 6 6 7 8 9 9 9
6 5 5 6 7 7 8 9 8 7 7 6 5 5 6 6 6 6 5 5 5 5 5 5 5 6 5 7 7 7 6 7 8 7 7 7 7 8 10 9 9 9 8
6 6 7 7 7 7 8 10 8 8 7 6 6 6 6 7 7 6 5 5 6 6 6 6 6 6 5 7 8 8 6 7 7 7 8 10 9 10 10 8 8 8 6
7 8 8 7 7 7 9 9 8 7 7 7 7 7 7 7 7 6 5 6 6 7 7 7 6 6 6 7 8 7 5 6 7 6 6 6 12 12 11 9 7 7 5
8 9 9 7 7 8 9 9 7 7 8 8 8 8 7 6 6 7 7 6 7 7 6 6 6 5 5 7 8 9 8 7 7 6 5 6 12 13 12 9 9 9 8
8 8 9 9 7 7 9 9 7 8 9 9 8 7 7 7 6 6 6 6 5 5 5 5 4 4 4 6 10 10 10 11 8 7 9 11 12 11 10 11 11 8 6
8 8 10 9 7 6 7 8 8 8 10 10 8 8 8 7 6 5 4 5 4 4 4 4 4 4 3 4 4 5 7 10 9 8 10 12 12 10 8 7 7 6 5
7 8 9 9 8 7 7 7 8 9 10 9 8 8 7 7 7 6 5 3 3 2 4 4 4 4 3 2 4 6 5 5 6 7 6 6 5 5 5 5 5 5 5
8 8 8 8 8 8 7 7 7 9 10 8 7 6 6 6 6 6 7 11 7 7 6 6 5 3 4 6 8 9 10 10 9 7 5 5 4 4 4 4 4 4 4
Wind_Direction
209 193 193 189 182 182 183 183 180 178 170 166 171 175 199 205 207 214 213 210 212 209 207 218 207 199 205 216 204 196 215 237 193 19 315 305 271 251 245 243 241 241 243
201 195 191 188 188 187 189 187 186 184 185 183 175 171 165 191 211 217 210 210 212 213 216 213 209 203 209 220 208 187 185 219 170 165 197 322 326 304 257 244 240 248 246
207 199 194 194 192 193 193 195 193 193 192 179 151 133 112 103 172 214 213 210 210 212 217 215 213 209 203 215 214 197 191 214 219 196 174 189 253 297 302 265 251 255 244
207 201 197 195 196 198 192 189 190 192 192 178 177 177 184 198 210 205 209 216 214 215 217 216 213 214 215 218 222 204 199 195 226 225 218 212 201 225 293 301 285 275 263
201 201 201 198 197 192 188 189 187 190 188 186 191 189 199 204 198 194 203 217 219 219 220 218 214 216 221 224 223 206 205 204 217 220 212 221 229 223 233 274 293 301 273
201 202 198 186 189 187 187 186 183 190 187 187 194 198 204 202 197 205 209 215 220 223 222 217 215 219 222 225 223 215 212 215 222 226 214 205 211 214 216 244 265 278 285
197 196 190 184 185 186 188 188 187 194 190 190 199 203 205 202 207 212 212 210 216 223 225 217 217 218 221 222 215 213 222 216 222 229 231 225 228 213 206 225 250 267 280
195 196 194 188 187 187 188 187 191 197 193 198 207 206 202 203 213 212 210 212 220 226 222 214 217 220 218 219 205 210 222 220 228 236 230 230 234 221 210 207 209 251 275
194 194 190 182 183 185 190 188 191 195 197 200 201 203 202 206 212 209 207 215 222 228 222 214 211 211 210 211 201 211 223 217 229 239 232 236 242 224 217 207 201 206 253
186 186 182 177 178 184 185 183 189 195 198 198 200 205 202 207 206 198 203 210 216 215 204 200 193 198 206 206 196 202 218 208 233 235 231 241 253 234 217 209 208 206 207
172 168 168 168 168 170 174 178 183 190 194 195 195 196 194 195 185 186 197 197 192 186 188 183 181 185 189 173 171 183 181 181 223 258 228 257 249 229 228 193 184 185 172
143 140 147 149 156 162 164 167 173 184 191 183 175 179 175 169 170 179 183 172 168 159 165 156 152 152 145 140 154 171 170 155 157 207 94 314 327 61 54 107 124 145 153
124 130 138 146 155 159 159 161 161 174 171 158 160 161 162 163 165 166 154 138 135 125 126 131 138 147 144 137 141 145 136 129 121 112 122 88 95 79 67 83 95 108 118
135 138 141 146 150 149 149 151 149 153 143 138 145 155 166 163 155 143 130 119 119 119 122 122 121 126 128 134 136 126 117 105 88 77 87 99 113 121 110 98 97 103 103
137 148 151 148 141 136 135 136 133 130 132 131 134 145 145 135 129 126 124 113 105 101 94 88 77 68 86 119 124 119 113 106 90 72 69 79 86 88 96 102 103 106 103
161 158 149 143 140 144 143 135 131 131 130 134 139 135 126 116 115 118 115 107 98 88 85 86 83 74 74 91 107 116 107 102 97 87 75 73 74 82 83 83 86 95 105
172 166 160 155 150 146 138 138 135 129 130 134 130 115 111 107 105 104 100 101 101 97 92 87 84 81 78 92 100 104 102 92 83 81 80 76 70 75 82 78 70 66 70
171 169 157 145 138 130 125 126 125 127 130 128 123 117 115 110 102 99 98 95 97 96 95 88 84 79 72 82 93 97 94 85 75 74 80 84 76 77 87 85 74 65 58
165 159 149 140 133 130 131 127 124 124 121 121 119 114 114 110 103 102 101 99 95 89 88 85 82 82 71 74 90 95 90 84 72 65 67 81 83 77 85 89 83 71 57
140 136 127 122 125 128 129 127 127 125 126 127 123 116 114 114 112 109 103 95 94 90 86 80 77 79 71 68 84 94 97 93 84 72 67 70 80 78 79 88 90 83 66
134 131 128 128 129 130 126 125 126 127 128 123 115 110 108 109 109 104 99 99 99 94 88 81 69 67 67 67 74 88 100 106 100 89 78 72 79 78 74 76 83 90 87
134 134 131 126 125 129 129 127 127 124 121 117 112 108 105 107 108 105 99 97 101 99 93 85 71 56 54 65 75 83 92 101 102 97 90 84 81 78 73 74 76 77 76
136 132 130 127 127 132 135 133 130 125 120 114 111 108 102 96 101 107 109 103 100 104 104 100 90 71 61 66 74 82 87 90 94 94 93 88 83 78 73 69 70 71 75
136 133 132 132 134 130 125 127 130 126 122 119 116 111 107 101 92 89 97 109 112 115 115 113 109 98 78 75 81 88 92 90 91 92 86 81 76 72 67 62 59 60 69
140 139 138 138 140 132 126 129 132 130 125 123 119 114 110 110 99 83 66 84 82 128 139 139 138 133 124 116 118 121 113 114 114 107 89 80 75 68 63 61 57 57 62
140 136 134 137 136 134 133 134 136 137 134 131 128 125 122 116 113 105 81 56 64 73 88 110 121 104 115 121 116 114 114 114 117 104 99 93 88 85 80 76 65 55 55
Height
1535 1538 1541 1544 1547 1550 1552 1554 1556 1558 1560 1562 1564 1565 1567 1569 1570 1571 1573 1574 1575 1576 1577 1578 1578 1579 1580 1580 1581 1581 1581 1581 1581 1581 1580 1580 1580 1579 1579 1579 1579 1579 1579
1533 1536 1538 1541 1544 1547 1550 1552 1554 1557 1558 1560 1562 1564 1566 1567 1569 1570 1571 1572 1574 1575 1576 1576 1577 1577 1578 1579 1579 1579 1580 1580 1580 1580 1579 1578 1578 1577 1577 1576 1576 1576 1576
1529 1532 1535 1538 1541 1544 1547 1550 1553 1556 1557 1559 1561 1563 1564 1565 1567 1568 1570 1571 1572 1573 1574 1574 1575 1576 1576 1577 1577 1577 1578 1578 1578 1578 1578 1577 1576 1575 1574 1574 1574 1574 1574
1527 1529 1532 1534 1537 1541 1544 1548 1551 1553 1555 1557 1559 1560 1561 1562 1564 1566 1568 1569 1570 1570 1571 1572 1572 1573 1574 1574 1575 1575 1575 1575 1575 1575 1575 1576 1575 1574 1572 1572 1572 1571 1571
1522 1525 1527 1531 1535 1538 1542 1545 1548 1550 1553 1555 1556 1558 1559 1561 1562 1564 1565 1566 1567 1568 1568 1569 1570 1570 1571 1572 1572 1572 1572 1573 1573 1573 1573 1572 1572 1571 1571 1569 1569 1568 1568
1518 1521 1525 1529 1532 1536 1540 1543 1545 1548 1551 1553 1554 1556 1557 1558 1560 1561 1562 1563 1564 1565 1566 1566 1567 1567 1568 1568 1569 1569 1569 1570 1570 1569 1569 1569 1569 1568 1567 1566 1565 1565 1565
1514 1517 1521 1525 1529 1533 1537 1540 1543 1545 1548 1550 1551 1553 1554 1556 1557 1558 1559 1560 1561 1562 1562 1563 1563 1564 1564 1565 1565 1565 1566 1566 1566 1566 1565 1565 1565 1565 1564 1563 1562 1562 1561
1510 1514 1517 1522 1526 1529 1533 1537 1539 1542 1545 1547 1549 1550 1552 1553 1554 1555 1556 1557 1558 1558 1559 1559 1560 1560 1561 1561 1562 1562 1562 1562 1562 1561 1561 1561 1560 1560 1560 1560 1559 1558 1558
1507 1511 1515 1519 1523 1526 1530 1533 1537 1539 1542 1544 1546 1548 1549 1550 1551 1552 1553 1554 1555 1555 1556 1556 1556 1557 1557 1558 1558 1558 1558 1558 1558 1558 1557 1557 1556 1556 1556 1556 1556 1557 1555
1506 1509 1513 1516 1520 1524 1528 1531 1534 1537 1540 1542 1544 1545 1546 1547 1548 1549 1550 1551 1552 1553 1553 1553 1553 1553 1554 1554 1554 1554 1554 1554 1554 1554 1554 1553 1553 1553 1552 1552 1553 1553 1553
1505 1507 1511 1515 1519 1522 1526 1529 1532 1535 1537 1539 1541 1543 1544 1545 1546 1546 1547 1548 1549 1550 1550 1550 1550 1551 1551 1551 1551 1551 1551 1551 1551 1551 1551 1550 1550 1550 1550 1550 1550 1550 1551
1505 1507 1510 1514 1518 1521 1524 1527 1529 1532 1535 1537 1539 1540 1541 1542 1543 1544 1545 1545 1546 1547 1547 1548 1548 1548 1549 1549 1549 1548 1549 1549 1549 1549 1549 1549 1549 1548 1548 1548 1548 1548 1548
1506 1508 1511 1514 1517 1520 1522 1525 1527 1530 1533 1535 1536 1538 1539 1540 1540 1541 1542 1543 1544 1544 1544 1545 1545 1546 1546 1546 1547 1547 1547 1547 1547 1547 1547 1547 1547 1547 1547 1547 1547 1547 1547
1506 1508 1511 1513 1516 1519 1521 1524 1526 1529 1531 1533 1534 1535 1536 1537 1538 1539 1539 1540 1541 1542 1542 1543 1543 1543 1544 1544 1544 1545 1545 1545 1545 1545 1545 1545 1545 1545 1545 1545 1545 1546 1546
1506 1508 1511 1513 1516 1518 1521 1523 1525 1528 1530 1531 1532 1533 1534 1535 1536 1536 1537 1538 1539 1540 1540 1541 1541 1541 1542 1542 1543 1543 1543 1543 1544 1544 1544 1544 1544 1544 1545 1544 1544 1545 1544
1506 1508 1511 1513 1516 1518 1520 1522 1524 1526 1529 1530 1531 1531 1532 1533 1534 1535 1536 1536 1537 1538 1539 1540 1540 1540 1540 1541 1541 1542 1542 1542 1543 1543 1544 1544 1544 1544 1544 1544 1544 1545 1544
1506 1509 1511 1513 1515 1517 1519 1521 1523 1526 1528 1529 1530 1530 1531 1532 1533 1534 1535 1536 1536 1537 1538 1539 1539 1539 1540 1540 1540 1541 1541 1542 1542 1543 1543 1543 1544 1544 1544 1544 1544 1544 1544
1506 1509 1511 1513 1515 1517 1519 1521 1523 1525 1527 1528 1529 1529 1530 1531 1533 1533 1534 1535 1536 1537 1537 1538 1539 1539 1540 1540 1540 1541 1541 1541 1542 1543 1543 1543 1544 1544 1544 1544 1544 1545 1545
1506 1508 1511 1513 1515 1517 1519 1521 1523 1525 1526 1528 1528 1529 1530 1531 1533 1534 1535 1536 1536 1537 1537 1538 1539 1540 1540 1541 1541 1542 1542 1542 1542 1543 1544 1544 1544 1545 1545 1545 1545 1545 1546
1505 1508 1511 1513 1515 1518 1519 1521 1522 1524 1526 1527 1528 1530 1531 1532 1533 1534 1536 1536 1537 1538 1539 1539 1540 1541 1541 1542 1542 1543 1543 1543 1543 1544 1545 1545 1546 1546 1546 1546 1546 1546 1547
1505 1508 1510 1513 1515 1517 1519 1521 1522 1524 1526 1527 1529 1530 1532 1533 1534 1535 1537 1538 1538 1539 1540 1540 1541 1542 1543 1543 1544 1544 1544 1544 1545 1545 1546 1547 1547 1547 1547 1547 1547 1548 1548
1505 1507 1510 1513 1515 1518 1519 1521 1523 1525 1526 1528 1529 1531 1532 1534 1535 1536 1538 1539 1540 1541 1541 1542 1543 1544 1544 1545 1546 1546 1546 1547 1547 1547 1548 1548 1549 1549 1549 1549 1549 1549 1550
1504 1507 1510 1512 1515 1518 1520 1521 1524 1525 1527 1528 1530 1532 1533 1535 1536 1538 1539 1540 1541 1542 1543 1544 1544 1545 1546 1546 1547 1547 1548 1548 1549 1549 1550 1550 1551 1551 1551 1551 1551 1551 1551
1504 1507 1510 1513 1515 1518 1520 1522 1524 1526 1528 1529 1531 1532 1534 1536 1537 1539 1540 1541 1542 1544 1545 1545 1546 1546 1547 1548 1548 1549 1549 1550 1550 1551 1551 1552 1552 1552 1552 1553 1553 1553 1553
1504 1507 1510 1513 1515 1518 1521 1523 1525 1527 1529 1530 1531 1533 1535 1536 1538 1540 1541 1542 1544 1545 1546 1547 1547 1547 1548 1549 1550 1550 1551 1551 1552 1552 1553 1553 1554 1554 1554 1554 1554 1554 1554
1504 1507 1510 1513 1515 1518 1521 1523 1525 1528 1529 1530 1532 1534 1535 1537 1539 1540 1542 1543 1545 1546 1547 1548 1549 1549 1550 1550 1551 1552 1552 1553 1554 1554 1554 1555 1555 1555 1555 1555 1555 1555 1555